VK2KGV-15 Weather Reports


time (UTC)temp
C
wind
direction
speed
KPH
gust
KPH
rain 1hr
cm
rain 24hr
cm
rain mn
cm
humidity
%
barometer
mb
20260510083228 13 180 0.0 0.0 0.00 0.00 0.00 43 1025.5
20260510082225 13 180 0.0 0.0 0.00 0.00 0.00 42 1025.3
20260510075215 16 180 0.0 0.0 0.00 0.00 0.00 38 1024.6
20260510073209 17 180 0.0 0.0 0.00 0.00 0.00 35 1024.3
20260510071203 20 315 0.0 0.0 0.00 0.00 0.00 32 1023.9
20260510065156 21 270 1.6 6.4 0.00 0.00 0.00 30 1023.5
20260510063150 22 315 0.0 4.8 0.00 0.00 0.00 29 1023.2
20260510060141 23 266 1.6 4.8 0.00 0.00 0.00 26 1022.6
20260510055138 25 99 3.2 4.8 0.00 0.00 0.00 26 1022.4
20260510053132 25 90 1.6 3.2 0.00 0.00 0.00 25 1022.5
20260510045119 25 167 3.2 6.4 0.00 0.00 0.00 26 1022.7
20260510043113 25 152 3.2 6.4 0.00 0.00 0.00 26 1022.9
20260510041107 25 112 1.6 9.7 0.00 0.00 0.00 27 1023.1
20260510033054 24 112 3.2 6.4 0.00 0.00 0.00 29 1023.4
20260510031048 25 104 12.9 12.9 0.00 0.00 0.00 28 1023.3
20260510015023 23 0 0.0 4.8 0.00 0.00 0.00 34 1024.8
20260510011011 22 343 0.0 8.0 0.00 0.00 0.00 36 1025.6
20260510001955 21 248 8.0 9.7 0.00 0.00 0.00 38 1025.9
20260509230933 19 180 0.0 3.2 0.00 0.00 0.00 51 1025.8
20260509224927 17 135 0.0 3.2 0.00 0.00 0.00 57 1026.3
20260509220915 12 112 0.0 0.0 0.00 0.00 0.00 75 1026.5
20260509212902 5 180 0.0 0.0 0.00 0.00 0.00 88 1027.2
20260509202844 1 180 0.0 0.0 0.00 0.00 0.00 87 1026.8
20260509200837 1 180 0.0 0.0 0.00 0.00 0.00 87 1026.5
20260509194831 2 180 0.0 0.0 0.00 0.00 0.00 87 1026.4
20260509192825 1 180 0.0 0.0 0.00 0.00 0.00 86 1026.1
20260509190819 1 180 0.0 0.0 0.00 0.00 0.00 86 1026.0
20260509184813 2 180 0.0 0.0 0.00 0.00 0.00 85 1025.8
20260509172748 2 180 0.0 0.0 0.00 0.00 0.00 82 1025.3
20260509170741 2 180 0.0 0.0 0.00 0.00 0.00 82 1025.1
20260509162729 2 180 0.0 0.0 0.00 0.00 0.00 80 1025.2
20260509160723 2 180 0.0 0.0 0.00 0.00 0.00 79 1025.3
20260509134639 4 180 0.0 0.0 0.00 0.00 0.00 71 1025.1
20260509130627 5 180 0.0 0.0 0.00 0.00 0.00 69 1025.0
20260509124621 5 180 0.0 0.0 0.00 0.00 0.00 67 1024.9
20260509114602 6 180 0.0 3.2 0.00 0.00 0.00 63 1024.4
20260509112556 6 180 0.0 0.0 0.00 0.00 0.00 60 1024.3
20260509110550 6 180 0.0 1.6 0.00 0.00 0.00 59 1024.3
20260509105547 6 180 0.0 0.0 0.00 0.00 0.00 59 1024.2
20260509104543 6 180 0.0 0.0 0.00 0.00 0.00 58 1024.3
20260509102537 7 180 0.0 0.0 0.00 0.00 0.00 56 1024.2
20260509095528 8 202 0.0 0.0 0.00 0.00 0.00 54 1024.0
20260509090512 10 225 0.0 0.0 0.00 0.00 0.00 49 1023.2
20260509084506 10 225 0.0 0.0 0.00 0.00 0.00 47 1022.8